�v������,,�����i�g�j,�����t���O,�g�[�i�g�j,�����t���O,,�����iMJ�j,�����t���O,�g�[�iMJ�j,�����t���O
2003/10/1,0:00:00,0,0,0,0,,0,0,0,0
2003/10/1,0:15:00,0,0,0,0,,0,0,0,0
2003/10/1,0:30:00,0.039,0,0,0,,1.4,0,0,0
2003/10/1,0:45:00,0,0,0,0,,0,0,0,0
2003/10/1,1:00:00,0,0,0,0,,0,0,0,0
2003/10/1,1:15:00,0,0,0,0,,0,0,0,0
2003/10/1,1:30:00,0,0,0,0,,0,0,0,0
2003/10/1,1:45:00,0,0,0,0,,0,0,0,0
2003/10/1,2:00:00,0,0,0,0,,0,0,0,0
2003/10/1,2:15:00,0,0,0,0,,0,0,0,0
2003/10/1,2:30:00,0,0,0,0,,0,0,0,0
2003/10/1,2:45:00,0,0,0,0,,0,0,0,0
2003/10/1,3:00:00,0,0,0,0,,0,0,0,0
2003/10/1,3:15:00,0,0,0,0,,0,0,0,0
2003/10/1,3:30:00,0,0,0,0,,0,0,0,0
2003/10/1,3:45:00,0,0,0,0,,0,0,0,0
2003/10/1,4:00:00,0,0,0,0,,0,0,0,0
2003/10/1,4:15:00,0,0,0,0,,0,0,0,0
2003/10/1,4:30:00,0,0,0,0,,0,0,0,0
2003/10/1,4:45:00,0,0,0,0,,0,0,0,0
2003/10/1,5:00:00,0,0,0,0,,0,0,0,0
2003/10/1,5:15:00,0,0,0,0,,0,0,0,0
2003/10/1,5:30:00,0,0,0,0,,0,0,0,0
2003/10/1,5:45:00,0,0,0,0,,0,0,0,0
2003/10/1,6:00:00,0,0,0,0,,0,0,0,0
2003/10/1,6:15:00,0.011,0,0,0,,0.4,0,0,0
2003/10/1,6:30:00,0,0,0,0,,0,0,0,0
2003/10/1,6:45:00,0,0,0,0,,0,0,0,0
2003/10/1,7:00:00,0,0,0,0,,0,0,0,0
2003/10/1,7:15:00,0.051,0,0,0,,1.9,0,0,0
2003/10/1,7:30:00,0,0,0,0,,0,0,0,0
2003/10/1,7:45:00,0,0,0,0,,0,0,0,0
2003/10/1,8:00:00,0.191,0,0,0,,7,0,0,0
2003/10/1,8:15:00,0.219,0,0,0,,8,0,0,0
2003/10/1,8:30:00,0.057,0,0,0,,2.1,0,0,0
2003/10/1,8:45:00,0.041,0,0,0,,1.5,0,0,0
2003/10/1,9:00:00,0,0,0,0,,0,0,0,0
2003/10/1,9:15:00,0,0,0,0,,0,0,0,0
2003/10/1,9:30:00,0,0,0,0,,0,0,0,0
2003/10/1,9:45:00,0,0,0,0,,0,0,0,0
2003/10/1,10:00:00,0,0,0,0,,0,0,0,0
2003/10/1,10:15:00,0,0,0,0,,0,0,0,0
2003/10/1,10:30:00,0,0,0,0,,0,0,0,0
2003/10/1,10:45:00,0,0,0,0,,0,0,0,0
2003/10/1,11:00:00,0,0,0,0,,0,0,0,0
2003/10/1,11:15:00,0,0,0,0,,0,0,0,0
2003/10/1,11:30:00,0,0,0,0,,0,0,0,0
2003/10/1,11:45:00,0,0,0,0,,0,0,0,0
2003/10/1,12:00:00,0.044,0,0,0,,1.6,0,0,0
2003/10/1,12:15:00,0,0,0,0,,0,0,0,0
2003/10/1,12:30:00,0.067,0,0,0,,2.5,0,0,0
2003/10/1,12:45:00,0.243,0,0,0,,8.9,0,0,0
2003/10/1,13:00:00,0,0,0,0,,0,0,0,0
2003/10/1,13:15:00,0,0,0,0,,0,0,0,0
2003/10/1,13:30:00,0,0,0,0,,0,0,0,0
2003/10/1,13:45:00,0.038,0,0,0,,1.4,0,0,0
2003/10/1,14:00:00,0.013,0,0,0,,0.5,0,0,0
2003/10/1,14:15:00,0,0,0,0,,0,0,0,0
2003/10/1,14:30:00,0,0,0,0,,0,0,0,0
2003/10/1,14:45:00,0,0,0,0,,0,0,0,0
2003/10/1,15:00:00,0,0,0,0,,0,0,0,0
2003/10/1,15:15:00,0,0,0,0,,0,0,0,0
2003/10/1,15:30:00,0,0,0,0,,0,0,0,0
2003/10/1,15:45:00,0,0,0,0,,0,0,0,0
2003/10/1,16:00:00,0,0,0,0,,0,0,0,0
2003/10/1,16:15:00,0.013,0,0,0,,0.5,0,0,0
2003/10/1,16:30:00,0,0,0,0,,0,0,0,0
2003/10/1,16:45:00,0,0,0,0,,0,0,0,0
2003/10/1,17:00:00,0,0,0,0,,0,0,0,0
2003/10/1,17:15:00,0,0,0,0,,0,0,0,0
2003/10/1,17:30:00,0,0,0,0,,0,0,0,0
2003/10/1,17:45:00,0,0,0,0,,0,0,0,0
2003/10/1,18:00:00,0.066,0,0,0,,2.4,0,0,0
2003/10/1,18:15:00,0,0,0,0,,0,0,0,0
2003/10/1,18:30:00,0,0,0,0,,0,0,0,0
2003/10/1,18:45:00,0,0,0,0,,0,0,0,0
2003/10/1,19:00:00,0.077,0,0,0,,2.8,0,0,0
2003/10/1,19:15:00,0.051,0,0,0,,1.8,0,0,0
2003/10/1,19:30:00,0,0,0,0,,0,0,0,0
2003/10/1,19:45:00,0,0,0,0,,0,0,0,0
2003/10/1,20:00:00,0,0,0,0,,0,0,0,0
2003/10/1,20:15:00,0.152,0,0,0,,5.6,0,0,0
2003/10/1,20:30:00,0.724,0,0,0,,26.6,0,0,0
2003/10/1,20:45:00,0.118,0,0,0,,4.3,0,0,0
2003/10/1,21:00:00,0.218,0,0,0,,8,0,0,0
2003/10/1,21:15:00,0.043,0,0,0,,1.6,0,0,0
2003/10/1,21:30:00,0,0,0,0,,0,0,0,0
2003/10/1,21:45:00,0,0,0,0,,0,0,0,0
2003/10/1,22:00:00,0,0,0,0,,0,0,0,0
2003/10/1,22:15:00,0,0,0,0,,0,0,0,0
2003/10/1,22:30:00,0.118,0,0,0,,4.4,0,0,0
2003/10/1,22:45:00,0.425,0,0,0,,15.6,0,0,0
2003/10/1,23:00:00,0.279,0,0,0,,10.2,0,0,0
2003/10/1,23:15:00,0,0,0,0,,0,0,0,0
2003/10/1,23:30:00,0,0,0,0,,0,0,0,0
2003/10/1,23:45:00,0.014,0,0,0,,0.5,0,0,0
2003/10/2,0:00:00,0,0,0,0,,0,0,0,0
2003/10/2,0:15:00,0,0,0,0,,0,0,0,0
2003/10/2,0:30:00,0,0,0,0,,0,0,0,0
2003/10/2,0:45:00,0,0,0,0,,0,0,0,0
2003/10/2,1:00:00,0,0,0,0,,0,0,0,0
2003/10/2,1:15:00,0,0,0,0,,0,0,0,0
2003/10/2,1:30:00,0,0,0,0,,0,0,0,0
2003/10/2,1:45:00,0,0,0,0,,0,0,0,0
2003/10/2,2:00:00,0,0,0,0,,0,0,0,0
2003/10/2,2:15:00,0,0,0,0,,0,0,0,0
2003/10/2,2:30:00,0,0,0,0,,0,0,0,0
2003/10/2,2:45:00,0,0,0,0,,0,0,0,0
2003/10/2,3:00:00,0,0,0,0,,0,0,0,0
2003/10/2,3:15:00,0,0,0,0,,0,0,0,0
2003/10/2,3:30:00,0,0,0,0,,0,0,0,0
2003/10/2,3:45:00,0,0,0,0,,0,0,0,0
2003/10/2,4:00:00,0,0,0,0,,0,0,0,0
2003/10/2,4:15:00,0,0,0,0,,0,0,0,0
2003/10/2,4:30:00,0,0,0,0,,0,0,0,0
2003/10/2,4:45:00,0,0,0,0,,0,0,0,0
2003/10/2,5:00:00,0,0,0,0,,0,0,0,0
2003/10/2,5:15:00,0,0,0,0,,0,0,0,0
2003/10/2,5:30:00,0,0,0,0,,0,0,0,0
2003/10/2,5:45:00,0,0,0,0,,0,0,0,0
2003/10/2,6:00:00,0,0,0,0,,0,0,0,0
2003/10/2,6:15:00,0,0,0,0,,0,0,0,0
2003/10/2,6:30:00,0,0,0,0,,0,0,0,0
2003/10/2,6:45:00,0.012,0,0,0,,0.4,0,0,0
2003/10/2,7:00:00,0,0,0,0,,0,0,0,0
2003/10/2,7:15:00,0,0,0,0,,0,0,0,0
2003/10/2,7:30:00,0,0,0,0,,0,0,0,0
2003/10/2,7:45:00,0,0,0,0,,0,0,0,0
2003/10/2,8:00:00,0.067,0,0,0,,2.5,0,0,0
2003/10/2,8:15:00,0.161,0,0,0,,6,0,0,0
2003/10/2,8:30:00,0.264,0,0,0,,9.7,0,0,0
2003/10/2,8:45:00,0.067,0,0,0,,2.5,0,0,0
2003/10/2,9:00:00,0.054,0,0,0,,2,0,0,0
2003/10/2,9:15:00,0,0,0,0,,0,0,0,0
2003/10/2,9:30:00,0,0,0,0,,0,0,0,0
2003/10/2,9:45:00,0,0,0,0,,0,0,0,0
2003/10/2,10:00:00,0,0,0,0,,0,0,0,0
2003/10/2,10:15:00,0,0,0,0,,0,0,0,0
2003/10/2,10:30:00,0,0,0,0,,0,0,0,0
2003/10/2,10:45:00,0,0,0,0,,0,0,0,0
2003/10/2,11:00:00,0,0,0,0,,0,0,0,0
2003/10/2,11:15:00,0,0,0,0,,0,0,0,0
2003/10/2,11:30:00,0,0,0,0,,0,0,0,0
2003/10/2,11:45:00,0,0,0,0,,0,0,0,0
2003/10/2,12:00:00,0,0,0,0,,0,0,0,0
2003/10/2,12:15:00,0,0,0,0,,0,0,0,0
2003/10/2,12:30:00,0,0,0,0,,0,0,0,0
2003/10/2,12:45:00,0,0,0,0,,0,0,0,0
2003/10/2,13:00:00,0,0,0,0,,0,0,0,0
2003/10/2,13:15:00,0.013,0,0,0,,0.5,0,0,0
2003/10/2,13:30:00,0,0,0,0,,0,0,0,0
2003/10/2,13:45:00,0,0,0,0,,0,0,0,0
2003/10/2,14:00:00,0,0,0,0,,0,0,0,0
2003/10/2,14:15:00,0,0,0,0,,0,0,0,0
2003/10/2,14:30:00,0,0,0.352,0,,0,0,12.9,0
2003/10/2,14:45:00,0.001,0,0.156,0,,0,0,5.7,0
2003/10/2,15:00:00,0.002,0,0.147,0,,0,0,5.3,0
2003/10/2,15:15:00,0.002,0,0.161,0,,0,0,5.9,0
2003/10/2,15:30:00,0.002,0,0.119,0,,0,0,4.4,0
2003/10/2,15:45:00,0.001,0,0.124,0,,0,0,4.6,0
2003/10/2,16:00:00,0,0,0,0,,0,0,0,0
2003/10/2,16:15:00,0,0,0,0,,0,0,0,0
2003/10/2,16:30:00,0,0,0,0,,0,0,0,0
2003/10/2,16:45:00,0,0,0,0,,0,0,0,0
2003/10/2,17:00:00,0.013,0,0,0,,0.5,0,0,0
2003/10/2,17:15:00,0.083,0,0,0,,3.1,0,0,0
2003/10/2,17:30:00,0.17,0,0.005,0,,6.3,0,0.2,0
2003/10/2,17:45:00,0,0,0,0,,0,0,0,0
2003/10/2,18:00:00,0,0,0,0,,0,0,0,0
2003/10/2,18:15:00,0,0,0,0,,0,0,0,0
2003/10/2,18:30:00,0.014,0,0,0,,0.5,0,0,0
2003/10/2,18:45:00,0,0,0.16,0,,0,0,5.9,0
2003/10/2,19:00:00,0.002,0,0.174,0,,0,0,6.4,0
2003/10/2,19:15:00,0.002,0,0.123,0,,0,0,4.5,0
2003/10/2,19:30:00,0.001,0,0.122,0,,0,0,4.5,0
2003/10/2,19:45:00,0.002,0,0.122,0,,0,0,4.5,0
2003/10/2,20:00:00,0,0,0.12,0,,0,0,4.4,0
2003/10/2,20:15:00,0,0,0.121,0,,0,0,4.4,0
2003/10/2,20:30:00,0,0,0.122,0,,0,0,4.4,0
2003/10/2,20:45:00,0,0,0.397,0,,0,0,14.5,0
2003/10/2,21:00:00,0,0,0.262,0,,0,0,9.6,0
2003/10/2,21:15:00,0,0,0.221,0,,0,0,8.1,0
2003/10/2,21:30:00,0,0,0.267,0,,0,0,9.9,0
2003/10/2,21:45:00,0.052,0,0.244,0,,1.9,0,9,0
2003/10/2,22:00:00,0.094,0,0.229,0,,3.5,0,8.4,0
2003/10/2,22:15:00,0,0,0.218,0,,0,0,8.1,0
2003/10/2,22:30:00,0,0,0.194,0,,0,0,7.2,0
2003/10/2,22:45:00,0,0,0.166,0,,0,0,6.1,0
2003/10/2,23:00:00,0,0,0.205,0,,0,0,7.5,0
2003/10/2,23:15:00,0,0,0.207,0,,0,0,7.6,0
2003/10/2,23:30:00,0,0,0.205,0,,0,0,7.6,0
2003/10/2,23:45:00,0,0,0.204,0,,0,0,7.5,0
2003/10/3,0:00:00,0,0,0.139,0,,0,0,5,0
2003/10/3,0:15:00,0,0,0.206,0,,0,0,7.6,0
2003/10/3,0:30:00,0.013,0,0.204,0,,0.5,0,7.5,0
2003/10/3,0:45:00,0.054,0,0.138,0,,2,0,5,0
2003/10/3,1:00:00,0,0,0,0,,0,0,0,0
2003/10/3,1:15:00,0,0,0,0,,0,0,0,0
2003/10/3,1:30:00,0,0,0,0,,0,0,0,0
2003/10/3,1:45:00,0,0,0,0,,0,0,0,0
2003/10/3,2:00:00,0,0,0,0,,0,0,0,0
2003/10/3,2:15:00,0,0,0,0,,0,0,0,0
2003/10/3,2:30:00,0,0,0,0,,0,0,0,0
2003/10/3,2:45:00,0,0,0,0,,0,0,0,0
2003/10/3,3:00:00,0,0,0,0,,0,0,0,0
2003/10/3,3:15:00,0,0,0,0,,0,0,0,0
2003/10/3,3:30:00,0,0,0,0,,0,0,0,0
2003/10/3,3:45:00,0,0,0,0,,0,0,0,0
2003/10/3,4:00:00,0,0,0,0,,0,0,0,0
2003/10/3,4:15:00,0,0,0,0,,0,0,0,0
2003/10/3,4:30:00,0,0,0,0,,0,0,0,0
2003/10/3,4:45:00,0,0,0,0,,0,0,0,0
2003/10/3,5:00:00,0,0,0,0,,0,0,0,0
2003/10/3,5:15:00,0,0,0,0,,0,0,0,0
2003/10/3,5:30:00,0,0,0,0,,0,0,0,0
2003/10/3,5:45:00,0,0,0,0,,0,0,0,0
2003/10/3,6:00:00,0,0,0,0,,0,0,0,0
2003/10/3,6:15:00,0,0,0,0,,0,0,0,0
2003/10/3,6:30:00,0,0,0,0,,0,0,0,0
2003/10/3,6:45:00,0,0,0.279,0,,0,0,10.2,0
2003/10/3,7:00:00,0,0,0.21,0,,0,0,7.7,0
2003/10/3,7:15:00,0.08,0,0.126,0,,3,0,4.6,0
2003/10/3,7:30:00,0.027,0,0.189,0,,1,0,6.9,0
2003/10/3,7:45:00,0,0,0.125,0,,0,0,4.6,0
2003/10/3,8:00:00,0.012,0,0.127,0,,0.5,0,4.7,0
2003/10/3,8:15:00,0.077,0,0.127,0,,2.8,0,4.6,0
2003/10/3,8:30:00,0.14,0,0.125,0,,5.2,0,4.6,0
2003/10/3,8:45:00,0.04,0,0.078,0,,1.5,0,2.9,0
2003/10/3,9:00:00,0.043,0,0,0,,1.6,0,0,0
2003/10/3,9:15:00,0,0,0,0,,0,0,0,0
2003/10/3,9:30:00,0.161,0,0,0,,6,0,0,0
2003/10/3,9:45:00,0.081,0,0,0,,3,0,0,0
2003/10/3,10:00:00,0.039,0,0,0,,1.4,0,0,0
2003/10/3,10:15:00,0,0,0,0,,0,0,0,0
2003/10/3,10:30:00,0,0,0,0,,0,0,0,0
2003/10/3,10:45:00,0,0,0,0,,0,0,0,0
2003/10/3,11:00:00,0.104,0,0,0,,3.8,0,0,0
2003/10/3,11:15:00,0.067,0,0,0,,2.5,0,0,0
2003/10/3,11:30:00,0.026,0,0,0,,1,0,0,0
2003/10/3,11:45:00,0,0,0,0,,0,0,0,0
2003/10/3,12:00:00,0,0,0,0,,0,0,0,0
2003/10/3,12:15:00,0,0,0,0,,0,0,0,0
2003/10/3,12:30:00,0,0,0,0,,0,0,0,0
2003/10/3,12:45:00,0,0,0,0,,0,0,0,0
2003/10/3,13:00:00,0,0,0,0,,0,0,0,0
2003/10/3,13:15:00,0,0,0,0,,0,0,0,0
2003/10/3,13:30:00,0,0,0,0,,0,0,0,0
2003/10/3,13:45:00,0.013,0,0,0,,0.5,0,0,0
2003/10/3,14:00:00,0.04,0,0,0,,1.5,0,0,0
2003/10/3,14:15:00,0,0,0,0,,0,0,0,0
2003/10/3,14:30:00,0,0,0,0,,0,0,0,0
2003/10/3,14:45:00,0,0,0,0,,0,0,0,0
2003/10/3,15:00:00,0.081,0,0,0,,3,0,0,0
2003/10/3,15:15:00,0.118,0,0,0,,4.4,0,0,0
2003/10/3,15:30:00,0.176,0,0.001,0,,6.4,0,0.1,0
2003/10/3,15:45:00,0.152,0,0.002,0,,5.6,0,0,0
2003/10/3,16:00:00,0.227,0,0,0,,8.3,0,0,0
2003/10/3,16:15:00,0,0,0,0,,0,0,0,0
2003/10/3,16:30:00,0,0,0,0,,0,0,0,0
2003/10/3,16:45:00,0,0,0,0,,0,0,0,0
2003/10/3,17:00:00,0,0,0,0,,0,0,0,0
2003/10/3,17:15:00,0,0,0,0,,0,0,0,0
2003/10/3,17:30:00,0,0,0,0,,0,0,0,0
2003/10/3,17:45:00,0.052,0,0,0,,1.9,0,0,0
2003/10/3,18:00:00,0.026,0,0,0,,1,0,0,0
2003/10/3,18:15:00,0.675,0,0,0,,24.8,0,0,0
2003/10/3,18:30:00,0.16,0,0,0,,5.9,0,0,0
2003/10/3,18:45:00,0.014,0,0,0,,0.5,0,0,0
2003/10/3,19:00:00,0.314,0,0,0,,11.6,0,0,0
2003/10/3,19:15:00,0.38,0,0,0,,14,0,0,0
2003/10/3,19:30:00,0,0,0,0,,0,0,0,0
2003/10/3,19:45:00,0,0,0,0,,0,0,0,0
2003/10/3,20:00:00,0.012,0,0,0,,0.4,0,0,0
2003/10/3,20:15:00,0.013,0,0,0,,0.5,0,0,0
2003/10/3,20:30:00,0.017,0,0.652,0,,0.6,0,24,0
2003/10/3,20:45:00,0.209,0,0.38,0,,7.7,0,14,0
2003/10/3,21:00:00,0.013,0,0.301,0,,0.5,0,11.1,0
2003/10/3,21:15:00,0.221,0,0.268,0,,8.1,0,9.8,0
2003/10/3,21:30:00,0,0,0.274,0,,0,0,10.1,0
2003/10/3,21:45:00,0,0,0.241,0,,0,0,8.8,0
2003/10/3,22:00:00,0,0,0.272,0,,0,0,10,0
2003/10/3,22:15:00,0,0,0.069,0,,0,0,2.5,0
2003/10/3,22:30:00,0,0,0,0,,0,0,0,0
2003/10/3,22:45:00,0,0,0,0,,0,0,0,0
2003/10/3,23:00:00,0,0,0,0,,0,0,0,0
2003/10/3,23:15:00,0,0,0,0,,0,0,0,0
2003/10/3,23:30:00,0,0,0,0,,0,0,0,0
2003/10/3,23:45:00,0,0,0,0,,0,0,0,0
2003/10/4,0:00:00,0,0,0,0,,0,0,0,0
2003/10/4,0:15:00,0,0,0,0,,0,0,0,0
2003/10/4,0:30:00,0,0,0,0,,0,0,0,0
2003/10/4,0:45:00,0,0,0,0,,0,0,0,0
2003/10/4,1:00:00,0,0,0,0,,0,0,0,0
2003/10/4,1:15:00,0,0,0,0,,0,0,0,0
2003/10/4,1:30:00,0,0,0,0,,0,0,0,0
2003/10/4,1:45:00,0,0,0,0,,0,0,0,0
2003/10/4,2:00:00,0,0,0,0,,0,0,0,0
2003/10/4,2:15:00,0,0,0,0,,0,0,0,0
2003/10/4,2:30:00,0,0,0,0,,0,0,0,0
2003/10/4,2:45:00,0,0,0,0,,0,0,0,0
2003/10/4,3:00:00,0,0,0,0,,0,0,0,0
2003/10/4,3:15:00,0,0,0,0,,0,0,0,0
2003/10/4,3:30:00,0,0,0,0,,0,0,0,0
2003/10/4,3:45:00,0,0,0,0,,0,0,0,0
2003/10/4,4:00:00,0,0,0,0,,0,0,0,0
2003/10/4,4:15:00,0,0,0,0,,0,0,0,0
2003/10/4,4:30:00,0,0,0,0,,0,0,0,0
2003/10/4,4:45:00,0,0,0,0,,0,0,0,0
2003/10/4,5:00:00,0,0,0,0,,0,0,0,0
2003/10/4,5:15:00,0,0,0,0,,0,0,0,0
2003/10/4,5:30:00,0,0,0,0,,0,0,0,0
2003/10/4,5:45:00,0,0,0,0,,0,0,0,0
2003/10/4,6:00:00,0,0,0.134,0,,0,0,4.9,0
2003/10/4,6:15:00,0,0,0.086,0,,0,0,3.2,0
2003/10/4,6:30:00,0,0,0,0,,0,0,0,0
2003/10/4,6:45:00,0,0,0.058,0,,0,0,2.1,0
2003/10/4,7:00:00,0.231,0,0.003,0,,8.4,0,0.1,0
2003/10/4,7:15:00,0.132,0,0.061,0,,4.9,0,2.2,0
2003/10/4,7:30:00,0,0,0,0,,0,0,0,0
2003/10/4,7:45:00,0,0,0.058,0,,0,0,2.1,0
2003/10/4,8:00:00,0.067,0,0.026,0,,2.5,0,1,0
2003/10/4,8:15:00,0.057,0,0.035,0,,2.1,0,1.3,0
2003/10/4,8:30:00,0,0,0.058,0,,0,0,2.1,0
2003/10/4,8:45:00,0,0,0,0,,0,0,0,0
2003/10/4,9:00:00,0,0,0.06,0,,0,0,2.2,0
2003/10/4,9:15:00,0,0,0,0,,0,0,0,0
2003/10/4,9:30:00,0,0,0.06,0,,0,0,2.2,0
2003/10/4,9:45:00,0,0,0,0,,0,0,0,0
2003/10/4,10:00:00,0,0,0.06,0,,0,0,2.2,0
2003/10/4,10:15:00,0,0,0.036,0,,0,0,1.3,0
2003/10/4,10:30:00,0,0,0.024,0,,0,0,0.9,0
2003/10/4,10:45:00,0,0,0.058,0,,0,0,2.1,0
2003/10/4,11:00:00,0,0,0,0,,0,0,0,0
2003/10/4,11:15:00,0,0,0.059,0,,0,0,2.2,0
2003/10/4,11:30:00,0.152,0,0,0,,5.6,0,0,0
2003/10/4,11:45:00,0,0,0.058,0,,0,0,2.1,0
2003/10/4,12:00:00,0,0,0,0,,0,0,0,0
2003/10/4,12:15:00,0,0,0.061,0,,0,0,2.2,0
2003/10/4,12:30:00,0,0,0,0,,0,0,0,0
2003/10/4,12:45:00,0.136,0,0.06,0,,5,0,2.3,0
2003/10/4,13:00:00,0.148,0,0.004,0,,5.4,0,0.1,0
2003/10/4,13:15:00,0.001,0,0.059,0,,0,0,2.2,0
2003/10/4,13:30:00,0,0,0.007,0,,0,0,0.3,0
2003/10/4,13:45:00,0,0,0.052,0,,0,0,1.9,0
2003/10/4,14:00:00,0,0,0.059,0,,0,0,2.2,0
2003/10/4,14:15:00,0,0,0,0,,0,0,0,0
2003/10/4,14:30:00,0,0,0.057,0,,0,0,2.1,0
2003/10/4,14:45:00,0,0,0,0,,0,0,0,0
2003/10/4,15:00:00,0.014,0,0.059,0,,0.5,0,2.2,0
2003/10/4,15:15:00,0,0,0,0,,0,0,0,0
2003/10/4,15:30:00,0,0,0.059,0,,0,0,2.2,0
2003/10/4,15:45:00,0,0,0,0,,0,0,0,0
2003/10/4,16:00:00,0,0,0.059,0,,0,0,2.2,0
2003/10/4,16:15:00,0,0,0,0,,0,0,0,0
2003/10/4,16:30:00,0,0,0.06,0,,0,0,2.2,0
2003/10/4,16:45:00,0,0,0,0,,0,0,0,0
2003/10/4,17:00:00,0,0,0.06,0,,0,0,2.2,0
2003/10/4,17:15:00,0,0,0.298,0,,0,0,10.9,0
2003/10/4,17:30:00,0,0,0.267,0,,0,0,9.8,0
2003/10/4,17:45:00,0,0,0.21,0,,0,0,7.7,0
2003/10/4,18:00:00,0,0,0.199,0,,0,0,7.3,0
2003/10/4,18:15:00,0,0,0.195,0,,0,0,7.2,0
2003/10/4,18:30:00,0,0,0.127,0,,0,0,4.6,0
2003/10/4,18:45:00,0,0,0.19,0,,0,0,6.9,0
2003/10/4,19:00:00,0.027,0,0.19,0,,1,0,6.9,0
2003/10/4,19:15:00,0,0,0.126,0,,0,0,4.6,0
2003/10/4,19:30:00,0,0,0.188,0,,0,0,7,0
2003/10/4,19:45:00,0,0,0.127,0,,0,0,4.6,0
2003/10/4,20:00:00,0,0,0.189,0,,0,0,6.9,0
2003/10/4,20:15:00,0,0,0.172,0,,0,0,6.3,0
2003/10/4,20:30:00,0,0,0.152,0,,0,0,5.7,0
2003/10/4,20:45:00,0.145,0,0.193,0,,5.3,0,7.1,0
2003/10/4,21:00:00,0,0,0.19,0,,0,0,7,0
2003/10/4,21:15:00,0.151,0,0.167,0,,5.6,0,6.1,0
2003/10/4,21:30:00,0.07,0,0.147,0,,2.5,0,5.4,0
2003/10/4,21:45:00,0,0,0.126,0,,0,0,4.6,0
2003/10/4,22:00:00,0,0,0,0,,0,0,0,0
2003/10/4,22:15:00,0,0,0,0,,0,0,0,0
2003/10/4,22:30:00,0,0,0,0,,0,0,0,0
2003/10/4,22:45:00,0,0,0,0,,0,0,0,0
2003/10/4,23:00:00,0,0,0,0,,0,0,0,0
2003/10/4,23:15:00,0,0,0,0,,0,0,0,0
2003/10/4,23:30:00,0,0,0,0,,0,0,0,0
2003/10/4,23:45:00,0,0,0,0,,0,0,0,0
2003/10/5,0:00:00,0,0,0,0,,0,0,0,0
2003/10/5,0:15:00,0,0,0,0,,0,0,0,0
2003/10/5,0:30:00,0,0,0,0,,0,0,0,0
2003/10/5,0:45:00,0,0,0,0,,0,0,0,0
2003/10/5,1:00:00,0,0,0,0,,0,0,0,0
2003/10/5,1:15:00,0,0,0,0,,0,0,0,0
2003/10/5,1:30:00,0,0,0,0,,0,0,0,0
2003/10/5,1:45:00,0,0,0,0,,0,0,0,0
2003/10/5,2:00:00,0,0,0,0,,0,0,0,0
2003/10/5,2:15:00,0,0,0,0,,0,0,0,0
2003/10/5,2:30:00,0,0,0,0,,0,0,0,0
2003/10/5,2:45:00,0,0,0,0,,0,0,0,0
2003/10/5,3:00:00,0,0,0,0,,0,0,0,0
2003/10/5,3:15:00,0,0,0,0,,0,0,0,0
2003/10/5,3:30:00,0,0,0,0,,0,0,0,0
2003/10/5,3:45:00,0,0,0,0,,0,0,0,0
2003/10/5,4:00:00,0,0,0,0,,0,0,0,0
2003/10/5,4:15:00,0,0,0,0,,0,0,0,0
2003/10/5,4:30:00,0,0,0,0,,0,0,0,0
2003/10/5,4:45:00,0,0,0,0,,0,0,0,0
2003/10/5,5:00:00,0,0,0,0,,0,0,0,0
2003/10/5,5:15:00,0,0,0,0,,0,0,0,0
2003/10/5,5:30:00,0,0,0,0,,0,0,0,0
2003/10/5,5:45:00,0,0,0,0,,0,0,0,0
2003/10/5,6:00:00,0,0,0,0,,0,0,0,0
2003/10/5,6:15:00,0,0,0,0,,0,0,0,0
2003/10/5,6:30:00,0.365,0,0,0,,13.4,0,0,0
2003/10/5,6:45:00,0.117,0,0,0,,4.3,0,0,0
2003/10/5,7:00:00,0,0,0,0,,0,0,0,0
2003/10/5,7:15:00,0.071,0,0,0,,2.6,0,0,0
2003/10/5,7:30:00,0.109,0,0,0,,4,0,0,0
2003/10/5,7:45:00,0,0,0,0,,0,0,0,0
2003/10/5,8:00:00,0.041,0,0,0,,1.5,0,0,0
2003/10/5,8:15:00,0.241,0,0,0,,8.8,0,0,0
2003/10/5,8:30:00,0.102,0,0,0,,3.7,0,0,0
2003/10/5,8:45:00,0.084,0,0,0,,3.1,0,0,0
2003/10/5,9:00:00,0.134,0,0,0,,5,0,0,0
2003/10/5,9:15:00,0,0,0,0,,0,0,0,0
2003/10/5,9:30:00,0.138,0,0,0,,5.1,0,0,0
2003/10/5,9:45:00,0,0,0,0,,0,0,0,0
2003/10/5,10:00:00,0,0,0,0,,0,0,0,0
2003/10/5,10:15:00,0,0,0,0,,0,0,0,0
2003/10/5,10:30:00,0,0,0,0,,0,0,0,0
2003/10/5,10:45:00,0,0,0,0,,0,0,0,0
2003/10/5,11:00:00,0,0,0,0,,0,0,0,0
2003/10/5,11:15:00,0,0,0,0,,0,0,0,0
2003/10/5,11:30:00,0,0,0,0,,0,0,0,0
2003/10/5,11:45:00,0,0,0,0,,0,0,0,0
2003/10/5,12:00:00,0,0,0,0,,0,0,0,0
2003/10/5,12:15:00,0,0,0,0,,0,0,0,0
2003/10/5,12:30:00,0,0,0,0,,0,0,0,0
2003/10/5,12:45:00,0,0,0,0,,0,0,0,0
2003/10/5,13:00:00,0,0,0,0,,0,0,0,0
2003/10/5,13:15:00,0,0,0,0,,0,0,0,0
2003/10/5,13:30:00,0,0,0,0,,0,0,0,0
2003/10/5,13:45:00,0.013,0,0,0,,0.5,0,0,0
2003/10/5,14:00:00,0,0,0,0,,0,0,0,0
2003/10/5,14:15:00,0.027,0,0,0,,1,0,0,0
2003/10/5,14:30:00,0,0,0,0,,0,0,0,0
2003/10/5,14:45:00,0,0,0,0,,0,0,0,0
2003/10/5,15:00:00,0,0,0,0,,0,0,0,0
2003/10/5,15:15:00,0,0,0,0,,0,0,0,0
2003/10/5,15:30:00,0,0,0,0,,0,0,0,0
2003/10/5,15:45:00,0,0,0,0,,0,0,0,0
2003/10/5,16:00:00,0,0,0,0,,0,0,0,0
2003/10/5,16:15:00,0,0,0,0,,0,0,0,0
2003/10/5,16:30:00,0,0,0,0,,0,0,0,0
2003/10/5,16:45:00,0,0,0,0,,0,0,0,0
2003/10/5,17:00:00,0,0,0,0,,0,0,0,0
2003/10/5,17:15:00,0.013,0,0,0,,0.5,0,0,0
2003/10/5,17:30:00,0.042,0,0,0,,1.6,0,0,0
2003/10/5,17:45:00,0,0,0,0,,0,0,0,0
2003/10/5,18:00:00,0,0,0,0,,0,0,0,0
2003/10/5,18:15:00,0.098,0,0,0,,3.6,0,0,0
2003/10/5,18:30:00,0,0,0,0,,0,0,0,0
2003/10/5,18:45:00,0,0,0,0,,0,0,0,0
2003/10/5,19:00:00,0.028,0,0,0,,1,0,0,0
2003/10/5,19:15:00,0,0,0,0,,0,0,0,0
2003/10/5,19:30:00,0.013,0,0,0,,0.5,0,0,0
2003/10/5,19:45:00,0,0,0,0,,0,0,0,0
2003/10/5,20:00:00,0,0,0,0,,0,0,0,0
2003/10/5,20:15:00,0,0,0,0,,0,0,0,0
2003/10/5,20:30:00,0.931,0,0.389,0,,34.2,0,14.2,0
2003/10/5,20:45:00,0,0,0.437,0,,0,0,16.1,0
2003/10/5,21:00:00,0,0,0.238,0,,0,0,8.7,0
2003/10/5,21:15:00,0,0,0.297,0,,0,0,11,0
2003/10/5,21:30:00,0.027,0,0.244,0,,1,0,9,0
2003/10/5,21:45:00,0.08,0,0.258,0,,2.9,0,9.5,0
2003/10/5,22:00:00,0,0,0.223,0,,0,0,8.2,0
2003/10/5,22:15:00,0.028,0,0.22,0,,1,0,8,0
2003/10/5,22:30:00,0,0,0.221,0,,0,0,8.1,0
2003/10/5,22:45:00,0,0,0.224,0,,0,0,8.2,0
2003/10/5,23:00:00,0,0,0.209,0,,0,0,7.6,0
2003/10/5,23:15:00,0,0,0.215,0,,0,0,8,0
2003/10/5,23:30:00,0.015,0,0.215,0,,0.5,0,7.9,0
2003/10/5,23:45:00,0.072,0,0.22,0,,2.7,0,8,0
2003/10/6,0:00:00,0.106,0,0.217,0,,3.9,0,8,0
2003/10/6,0:15:00,0.479,0,0.214,0,,17.6,0,7.8,0
2003/10/6,0:30:00,0.119,0,0.213,0,,4.4,0,7.8,0
2003/10/6,0:45:00,0.209,0,0.215,0,,7.7,0,7.9,0
2003/10/6,1:00:00,0,0,0.115,0,,0,0,4.3,0
2003/10/6,1:15:00,0.052,0,0.002,0,,1.9,0,0.1,0
2003/10/6,1:30:00,0,0,0,0,,0,0,0,0
2003/10/6,1:45:00,0,0,0,0,,0,0,0,0
2003/10/6,2:00:00,0,0,0,0,,0,0,0,0
2003/10/6,2:15:00,0,0,0,0,,0,0,0,0
2003/10/6,2:30:00,0,0,0,0,,0,0,0,0
2003/10/6,2:45:00,0,0,0,0,,0,0,0,0
2003/10/6,3:00:00,0,0,0,0,,0,0,0,0
2003/10/6,3:15:00,0,0,0,0,,0,0,0,0
2003/10/6,3:30:00,0,0,0,0,,0,0,0,0
2003/10/6,3:45:00,0,0,0,0,,0,0,0,0
2003/10/6,4:00:00,0,0,0,0,,0,0,0,0
2003/10/6,4:15:00,0,0,0,0,,0,0,0,0
2003/10/6,4:30:00,0,0,0,0,,0,0,0,0
2003/10/6,4:45:00,0,0,0,0,,0,0,0,0
2003/10/6,5:00:00,0,0,0,0,,0,0,0,0
2003/10/6,5:15:00,0,0,0,0,,0,0,0,0
2003/10/6,5:30:00,0,0,0,0,,0,0,0,0
2003/10/6,5:45:00,0,0,0,0,,0,0,0,0
2003/10/6,6:00:00,0,0,0,0,,0,0,0,0
2003/10/6,6:15:00,0,0,0,0,,0,0,0,0
2003/10/6,6:30:00,0,0,0.158,0,,0,0,5.8,0
2003/10/6,6:45:00,0.158,0,0.064,0,,5.8,0,2.3,0
2003/10/6,7:00:00,0,0,0.073,0,,0,0,2.7,0
2003/10/6,7:15:00,0,0,0.065,0,,0,0,2.4,0
2003/10/6,7:30:00,0,0,0.05,0,,0,0,1.8,0
2003/10/6,7:45:00,0,0,0.057,0,,0,0,2.1,0
2003/10/6,8:00:00,0,0,0.06,0,,0,0,2.2,0
2003/10/6,8:15:00,0.11,0,0.061,0,,4,0,2.2,0
2003/10/6,8:30:00,0.013,0,0.061,0,,0.5,0,2.2,0
2003/10/6,8:45:00,0.028,0,0.061,0,,1,0,2.2,0
2003/10/6,9:00:00,0,0,0.06,0,,0,0,2.2,0
2003/10/6,9:15:00,0,0,0.061,0,,0,0,2.2,0
2003/10/6,9:30:00,0.083,0,0.06,0,,3,0,2.2,0
2003/10/6,9:45:00,0.165,0,0.063,0,,6,0,2.3,0
2003/10/6,10:00:00,0.128,0,0.062,0,,4.8,0,2.3,0
2003/10/6,10:15:00,0.052,0,0.001,0,,1.9,0,0,0
2003/10/6,10:30:00,0,0,0,0,,0,0,0,0
2003/10/6,10:45:00,0,0,0,0,,0,0,0,0
2003/10/6,11:00:00,0,0,0,0,,0,0,0,0
2003/10/6,11:15:00,0,0,0,0,,0,0,0,0
2003/10/6,11:30:00,0,0,0,0,,0,0,0,0
2003/10/6,11:45:00,0,0,0,0,,0,0,0,0
2003/10/6,12:00:00,0,0,0,0,,0,0,0,0
2003/10/6,12:15:00,0,0,0,0,,0,0,0,0
2003/10/6,12:30:00,0,0,0,0,,0,0,0,0
2003/10/6,12:45:00,0,0,0,0,,0,0,0,0
2003/10/6,13:00:00,0,0,0,0,,0,0,0,0
2003/10/6,13:15:00,0,0,0,0,,0,0,0,0
2003/10/6,13:30:00,0,0,0,0,,0,0,0,0
2003/10/6,13:45:00,0,0,0,0,,0,0,0,0
2003/10/6,14:00:00,0,0,0,0,,0,0,0,0
2003/10/6,14:15:00,0,0,0,0,,0,0,0,0
2003/10/6,14:30:00,0.014,0,0,0,,0.5,0,0,0
2003/10/6,14:45:00,0,0,0,0,,0,0,0,0
2003/10/6,15:00:00,0,0,0,0,,0,0,0,0
2003/10/6,15:15:00,0,0,0,0,,0,0,0,0
2003/10/6,15:30:00,0,0,0,0,,0,0,0,0
2003/10/6,15:45:00,0,0,0,0,,0,0,0,0
2003/10/6,16:00:00,0,0,0,0,,0,0,0,0
2003/10/6,16:15:00,0,0,0,0,,0,0,0,0
2003/10/6,16:30:00,0.026,0,0.001,0,,0.9,0,0,0
2003/10/6,16:45:00,0,0,0,0,,0,0,0,0
2003/10/6,17:00:00,0,0,0,0,,0,0,0,0
2003/10/6,17:15:00,0,0,0,0,,0,0,0,0
2003/10/6,17:30:00,0,0,0,0,,0,0,0,0
2003/10/6,17:45:00,0,0,0,0,,0,0,0,0
2003/10/6,18:00:00,0.04,0,0.001,0,,1.5,0,0,0
2003/10/6,18:15:00,0,0,0,0,,0,0,0,0
2003/10/6,18:30:00,0,0,0,0,,0,0,0,0
2003/10/6,18:45:00,0.026,0,0.118,0,,0.9,0,4.3,0
2003/10/6,19:00:00,0,0,0.123,0,,0,0,4.5,0
2003/10/6,19:15:00,0,0,0.06,0,,0,0,2.2,0
2003/10/6,19:30:00,0,0,0.062,0,,0,0,2.3,0
2003/10/6,19:45:00,0,0,0.059,0,,0,0,2.2,0
2003/10/6,20:00:00,0,0,0.061,0,,0,0,2.2,0
2003/10/6,20:15:00,0,0,0.54,0,,0,0,19.8,0
2003/10/6,20:30:00,0,0,0.364,0,,0,0,13.3,0
2003/10/6,20:45:00,0,0,0.303,0,,0,0,11.2,0
2003/10/6,21:00:00,0,0,0.308,0,,0,0,11.3,0
2003/10/6,21:15:00,0,0,0.275,0,,0,0,10.1,0
2003/10/6,21:30:00,0,0,0.211,0,,0,0,7.7,0
2003/10/6,21:45:00,0,0,0.281,0,,0,0,10.3,0
2003/10/6,22:00:00,0,0,0.209,0,,0,0,7.6,0
2003/10/6,22:15:00,0.128,0,0.207,0,,4.7,0,7.6,0
2003/10/6,22:30:00,0.152,0,0.209,0,,5.6,0,7.7,0
2003/10/6,22:45:00,0.013,0,0.21,0,,0.5,0,7.7,0
2003/10/6,23:00:00,0,0,0.209,0,,0,0,7.7,0
2003/10/6,23:15:00,0,0,0.247,0,,0,0,9.1,0
2003/10/6,23:30:00,0,0,0.234,0,,0,0,8.6,0
2003/10/6,23:45:00,0,0,0.208,0,,0,0,7.7,0
2003/10/7,0:00:00,0,0,0.207,0,,0,0,7.6,0
2003/10/7,0:15:00,0,0,0.208,0,,0,0,7.6,0
2003/10/7,0:30:00,0,0,0.206,0,,0,0,7.5,0
2003/10/7,0:45:00,0,0,0.203,0,,0,0,7.5,0
2003/10/7,1:00:00,0,0,0.068,0,,0,0,2.5,0
2003/10/7,1:15:00,0,0,0,0,,0,0,0,0
2003/10/7,1:30:00,0,0,0,0,,0,0,0,0
2003/10/7,1:45:00,0,0,0,0,,0,0,0,0
2003/10/7,2:00:00,0,0,0,0,,0,0,0,0
2003/10/7,2:15:00,0,0,0,0,,0,0,0,0
2003/10/7,2:30:00,0,0,0,0,,0,0,0,0
2003/10/7,2:45:00,0,0,0,0,,0,0,0,0
2003/10/7,3:00:00,0,0,0,0,,0,0,0,0
2003/10/7,3:15:00,0,0,0,0,,0,0,0,0
2003/10/7,3:30:00,0,0,0,0,,0,0,0,0
2003/10/7,3:45:00,0,0,0,0,,0,0,0,0
2003/10/7,4:00:00,0,0,0,0,,0,0,0,0
2003/10/7,4:15:00,0,0,0,0,,0,0,0,0
2003/10/7,4:30:00,0,0,0,0,,0,0,0,0
2003/10/7,4:45:00,0,0,0,0,,0,0,0,0
2003/10/7,5:00:00,0,0,0,0,,0,0,0,0
2003/10/7,5:15:00,0,0,0,0,,0,0,0,0
2003/10/7,5:30:00,0,0,0,0,,0,0,0,0
2003/10/7,5:45:00,0,0,0,0,,0,0,0,0
2003/10/7,6:00:00,0,0,0,0,,0,0,0,0
2003/10/7,6:15:00,0.013,0,0.072,0,,0.5,0,2.6,0
2003/10/7,6:30:00,0.191,0,0.061,0,,7.1,0,2.2,0
2003/10/7,6:45:00,0.244,0,0,0,,8.9,0,0,0
2003/10/7,7:00:00,0,0,0.06,0,,0,0,2.2,0
2003/10/7,7:15:00,0,0,0.059,0,,0,0,2.2,0